Weather History for Allentown, PA

Change the Weather History Date:

Monday, February 4, 2013

  Actual Average (KABE) Record (KABE)
Temperature  
Mean Temperature 26 °F 29 °F  
Max Temperature 30 °F 37 °F 65 °F (1991)
Min Temperature 21 °F 20 °F -1 °F (1985)
Degree Days  
Heating Degree Days 40 36  
Month to date heating degree days 146  
Since 1 July heating degree days 3496  
Cooling Degree Days 0 0  
Month to date cooling degree days 0  
Year to date cooling degree days 0  
Moisture  
Dew Point 10 °F    
Average Humidity 52    
Maximum Humidity 64    
Minimum Humidity 40    
Precipitation  
Precipitation 0.00 in 0.10 in 1.24 in (1952)
Month to date precipitation 0.40  
Year to date precipitation 3.43  
Snow  
Snow 0.00 in 0.40 in 10.00 in (1961)
Month to date snowfall 1.7  
Since 1 July snowfall 17.6  
Snow Depth -    
Sea Level Pressure  
Sea Level Pressure 29.96 in    
Wind  
Wind Speed 8 mph (WSW)    
Max Wind Speed 14 mph    
Max Gust Speed 24 mph    
Visibility 10 miles    
Events      
T = Trace of Precipitation, MM = Missing Value Source: NWS Daily Summary

Daily Weather History Graph

Daily Weather History Graph

Search for Another Location

Airport:

Trip Planner

Search our weather history database for the weather conditions in past years. The results will help you decide how hot, cold, wet, or windy it might be!

Date:

Astronomy

Feb. 04, 2013 Rise Set
Actual Time 7:08 AM EST 5:23 PM EST
Civil Twilight 6:39 AM EST 5:52 PM EST
Nautical Twilight 6:07 AM EST 6:25 PM EST
Astronomical Twilight 5:35 AM EST 6:57 PM EST
Moon 1:41 AM EST (2/4) 11:45 AM EST (2/4)
Length of Visible Light 11h 12m
Length of Day
10h 15m
Last Quarter, 37% of the Moon is Illuminated
Feb 4
Last Quarter
Feb 10
New
Feb 17
First Quarter
Feb 25
Full
Mar 4
Last Quarter

Hourly Weather History & Observations

Time (EST) Temp. Windchill Dew Point Humidity Pressure Visibility Wind Dir Wind Speed Gust Speed Precip Events Conditions
12:15 AM 26.6 °F 15.7 °F 14.0 °F 59% 29.89 in 10.0 mi West 12.7 mph 21.9 mph N/A   Mostly Cloudy
12:35 AM 24.8 °F 15.3 °F 12.2 °F 59% 29.89 in 10.0 mi West 9.2 mph 16.1 mph N/A   Mostly Cloudy
12:55 AM 23.0 °F 15.8 °F 10.4 °F 59% 29.89 in 10.0 mi West 5.8 mph - N/A   Scattered Clouds
1:15 AM 23.0 °F 15.8 °F 10.4 °F 59% 29.89 in 10.0 mi West 5.8 mph - N/A   Clear
1:35 AM 23.0 °F 13.1 °F 8.6 °F 54% 29.90 in 10.0 mi West 9.2 mph - N/A   Clear
1:55 AM 23.0 °F 15.8 °F 8.6 °F 54% 29.91 in 10.0 mi West 5.8 mph - N/A   Clear
2:15 AM 23.0 °F 13.9 °F 8.6 °F 54% 29.91 in 10.0 mi West 8.1 mph 16.1 mph N/A   Clear
2:35 AM 23.0 °F 13.9 °F 8.6 °F 54% 29.91 in 10.0 mi West 8.1 mph 17.3 mph N/A   Clear
2:55 AM 21.2 °F 10.9 °F 8.6 °F 58% 29.92 in 10.0 mi West 9.2 mph 16.1 mph N/A   Clear
3:15 AM 21.2 °F 10.9 °F 8.6 °F 58% 29.93 in 10.0 mi West 9.2 mph 16.1 mph N/A   Clear
3:35 AM 21.2 °F 10.1 °F 8.6 °F 58% 29.93 in 10.0 mi West 10.4 mph 16.1 mph N/A   Clear
3:55 AM 21.2 °F 12.6 °F 8.6 °F 58% 29.94 in 10.0 mi West 6.9 mph 18.4 mph N/A   Scattered Clouds
4:15 AM 21.2 °F 13.6 °F 10.4 °F 63% 29.94 in 10.0 mi West 5.8 mph - N/A   Mostly Cloudy
5:55 AM 21.2 °F 14.9 °F 8.6 °F 58% 29.96 in 10.0 mi WSW 4.6 mph - N/A   Clear
6:15 AM 21.2 °F 13.6 °F 8.6 °F 58% 29.96 in 10.0 mi West 5.8 mph - N/A   Clear
6:35 AM 21.2 °F 10.9 °F 8.6 °F 58% 29.97 in 10.0 mi West 9.2 mph - N/A   Clear
6:55 AM 21.2 °F 12.6 °F 8.6 °F 58% 29.97 in 10.0 mi West 6.9 mph - N/A   Clear
7:15 AM 21.2 °F 13.6 °F 8.6 °F 58% 29.98 in 10.0 mi West 5.8 mph - N/A   Scattered Clouds
7:35 AM 21.2 °F 12.6 °F 8.6 °F 58% 29.99 in 10.0 mi SW 6.9 mph - N/A   Clear
7:55 AM 21.2 °F 12.6 °F 10.4 °F 63% 29.99 in 10.0 mi SW 6.9 mph - N/A   Clear
8:15 AM 21.2 °F 12.6 °F 10.4 °F 63% 30.00 in 10.0 mi SW 6.9 mph - N/A   Clear
8:35 AM 23.0 °F 13.9 °F 10.4 °F 59% 30.01 in 10.0 mi SW 8.1 mph - N/A   Clear
8:55 AM 23.0 °F 11.1 °F 8.6 °F 54% 30.02 in 10.0 mi West 12.7 mph 18.4 mph N/A   Scattered Clouds
9:15 AM 24.8 °F 14.0 °F 8.6 °F 50% 30.02 in 10.0 mi West 11.5 mph 20.7 mph N/A   Scattered Clouds
9:35 AM 24.8 °F 14.0 °F 8.6 °F 50% 30.01 in 10.0 mi West 11.5 mph 17.3 mph N/A   Clear
9:55 AM 26.6 °F 16.8 °F 8.6 °F 47% 30.02 in 10.0 mi WNW 10.4 mph 17.3 mph N/A   Scattered Clouds
10:15 AM 26.6 °F 16.2 °F 6.8 °F 43% 30.02 in 10.0 mi West 11.5 mph 18.4 mph N/A   Scattered Clouds
10:35 AM 26.6 °F 16.2 °F 8.6 °F 47% 30.02 in 10.0 mi West 11.5 mph 21.9 mph N/A   Mostly Cloudy
10:55 AM 28.4 °F 17.5 °F 8.6 °F 43% 30.02 in 10.0 mi West 13.8 mph 24.2 mph N/A   Mostly Cloudy
11:15 AM 26.6 °F 15.2 °F 8.6 °F 47% 30.02 in 10.0 mi West 13.8 mph 21.9 mph N/A   Mostly Cloudy
11:35 AM 26.6 °F 15.7 °F 8.6 °F 47% 30.02 in 10.0 mi West 12.7 mph 20.7 mph N/A   Mostly Cloudy
11:55 AM 26.6 °F 15.2 °F 8.6 °F 47% 30.00 in 10.0 mi WSW 13.8 mph 19.6 mph N/A   Mostly Cloudy
12:15 PM 26.6 °F 16.8 °F 8.6 °F 47% 30.00 in 10.0 mi West 10.4 mph 19.6 mph N/A   Mostly Cloudy
12:35 PM 28.4 °F 18.0 °F 8.6 °F 43% 29.99 in 10.0 mi WSW 12.7 mph 19.6 mph N/A   Mostly Cloudy
12:55 PM 28.4 °F 19.1 °F 8.6 °F 43% 29.98 in 10.0 mi WNW 10.4 mph 18.4 mph N/A   Mostly Cloudy
1:15 PM 28.4 °F 19.7 °F 8.6 °F 43% 29.97 in 10.0 mi WNW 9.2 mph 17.3 mph N/A   Scattered Clouds
1:35 PM 28.4 °F 22.2 °F 8.6 °F 43% 29.97 in 10.0 mi West 5.8 mph - N/A   Mostly Cloudy
1:55 PM 28.4 °F 20.4 °F 8.6 °F 43% 29.96 in 10.0 mi West 8.1 mph - N/A   Mostly Cloudy
2:15 PM 28.4 °F 18.5 °F 8.6 °F 43% 29.96 in 10.0 mi WNW 11.5 mph 16.1 mph N/A   Overcast
2:35 PM 30.2 °F 22.6 °F 8.6 °F 40% 29.96 in 10.0 mi West 8.1 mph 18.4 mph N/A   Mostly Cloudy
2:55 PM 28.4 °F 19.1 °F 8.6 °F 43% 29.96 in 10.0 mi SW 10.4 mph 19.6 mph N/A   Mostly Cloudy
3:15 PM 30.2 °F 20.2 °F 8.6 °F 40% 29.96 in 10.0 mi WSW 12.7 mph 19.6 mph N/A   Overcast
3:35 PM 28.4 °F 19.1 °F 10.4 °F 47% 29.96 in 10.0 mi WSW 10.4 mph 17.3 mph N/A   Mostly Cloudy
3:55 PM 30.2 °F 20.8 °F 10.4 °F 44% 29.96 in 10.0 mi WSW 11.5 mph 18.4 mph N/A   Mostly Cloudy
4:15 PM 30.2 °F 21.9 °F 10.4 °F 44% 29.96 in 10.0 mi WSW 9.2 mph - N/A   Mostly Cloudy
4:35 PM 28.4 °F 20.4 °F 10.4 °F 47% 29.95 in 10.0 mi WSW 8.1 mph - N/A   Scattered Clouds
4:55 PM 28.4 °F 21.2 °F 10.4 °F 47% 29.95 in 10.0 mi WSW 6.9 mph - N/A   Clear
5:15 PM 28.4 °F 21.2 °F 10.4 °F 47% 29.95 in 10.0 mi WSW 6.9 mph - N/A   Clear
5:35 PM 26.6 °F 20.0 °F 10.4 °F 51% 29.96 in 10.0 mi SSW 5.8 mph - N/A   Clear
5:55 PM 26.6 °F 20.0 °F 10.4 °F 51% 29.96 in 10.0 mi SSW 5.8 mph - N/A   Clear
6:15 PM 26.6 °F 21.2 °F 10.4 °F 51% 29.96 in 10.0 mi SW 4.6 mph - N/A   Clear
6:35 PM 26.6 °F 22.6 °F 10.4 °F 51% 29.96 in 10.0 mi SSW 3.5 mph - N/A   Clear
6:55 PM 26.6 °F 21.2 °F 10.4 °F 51% 29.96 in 10.0 mi South 4.6 mph - N/A   Clear
7:15 PM 26.6 °F 22.6 °F 12.2 °F 55% 29.96 in 10.0 mi South 3.5 mph - N/A   Clear
7:35 PM 26.6 °F - 12.2 °F 55% 29.96 in 10.0 mi Calm Calm - N/A   Clear
7:55 PM 26.6 °F - 12.2 °F 55% 29.96 in 10.0 mi Calm Calm - N/A   Clear
8:15 PM 26.6 °F 21.2 °F 14.0 °F 59% 29.95 in 10.0 mi South 4.6 mph - N/A   Clear
8:35 PM 26.6 °F 22.6 °F 14.0 °F 59% 29.96 in 10.0 mi SSW 3.5 mph - N/A   Mostly Cloudy
8:55 PM 28.4 °F 24.6 °F 12.2 °F 51% 29.96 in 10.0 mi SSW 3.5 mph - N/A   Mostly Cloudy
9:15 PM 28.4 °F - 14.0 °F 55% 29.96 in 10.0 mi Calm Calm - N/A   Scattered Clouds
9:35 PM 28.4 °F - 14.0 °F 55% 29.96 in 10.0 mi Calm Calm - N/A   Clear
9:55 PM 28.4 °F 24.6 °F 14.0 °F 55% 29.96 in 10.0 mi WSW 3.5 mph - N/A   Clear
10:15 PM 28.4 °F - 14.0 °F 55% 29.95 in 10.0 mi Calm Calm - N/A   Scattered Clouds
10:35 PM 28.4 °F - 14.0 °F 55% 29.94 in 7.0 mi Calm Calm - N/A   Clear
10:55 PM 28.4 °F - 14.0 °F 55% 29.94 in 10.0 mi Calm Calm - N/A   Scattered Clouds
11:15 PM 28.4 °F - 14.0 °F 55% 29.94 in 10.0 mi Calm Calm - N/A   Scattered Clouds
11:35 PM 28.4 °F 23.3 °F 17.6 °F 64% 29.93 in 10.0 mi South 4.6 mph - N/A   Mostly Cloudy
11:55 PM 28.4 °F - 17.6 °F 64% 29.92 in 10.0 mi Calm Calm - N/A   Overcast